| time (UTC) | temp C | wind direction | speed KPH | gust KPH | rain 1hr cm | rain 24hr cm | rain mn cm | humidity % | barometer mb |
| 20260508023610 | 4 | 80 | 0.0 | 0.0 | 0.00 | 0.00 | 0.00 | 85 | 1014.3 |
| 20260508023108 | 5 | 80 | 0.0 | 0.0 | 0.00 | 0.00 | 0.00 | 85 | 1014.0 |
| 20260508022603 | 5 | 71 | 0.0 | 0.0 | 0.00 | 0.00 | 0.00 | 83 | 1014.3 |
| 20260508022101 | 5 | 71 | 0.0 | 0.0 | 0.00 | 0.00 | 0.00 | 82 | 1014.2 |
| 20260508021556 | 6 | 71 | 0.0 | 0.0 | 0.00 | 0.00 | 0.00 | 81 | 1014.2 |
| 20260508021053 | 6 | 54 | 0.0 | 0.0 | 0.00 | 0.00 | 0.00 | 81 | 1014.1 |
| 20260508020550 | 6 | 96 | 0.0 | 0.0 | 0.00 | 0.00 | 0.00 | 78 | 1014.0 |
| 20260508020048 | 6 | 96 | 0.0 | 0.0 | 0.00 | 0.00 | 0.00 | 78 | 1014.2 |
| 20260508015545 | 6 | 74 | 0.0 | 0.0 | 0.00 | 0.00 | 0.00 | 77 | 1014.1 |
| 20260508015042 | 7 | 98 | 0.0 | 0.0 | 0.00 | 0.00 | 0.00 | 76 | 1013.9 |
| 20260508014538 | 7 | 83 | 0.0 | 0.0 | 0.00 | 0.00 | 0.00 | 74 | 1013.9 |
| 20260508014035 | 7 | 93 | 0.0 | 0.0 | 0.00 | 0.00 | 0.00 | 73 | 1013.8 |
| 20260508013531 | 8 | 98 | 0.0 | 0.0 | 0.00 | 0.00 | 0.00 | 71 | 1013.9 |
| 20260508013028 | 8 | 100 | 0.0 | 0.0 | 0.00 | 0.00 | 0.00 | 71 | 1013.6 |
| 20260508012525 | 8 | 107 | 0.0 | 0.0 | 0.00 | 0.00 | 0.00 | 70 | 1013.5 |
| 20260508012023 | 8 | 104 | 0.0 | 0.0 | 0.00 | 0.00 | 0.00 | 69 | 1013.5 |
| 20260508011521 | 8 | 151 | 0.0 | 1.6 | 0.00 | 0.00 | 0.00 | 67 | 1013.4 |
| 20260508011018 | 9 | 57 | 0.0 | 1.6 | 0.00 | 0.00 | 0.00 | 63 | 1013.5 |
| 20260508010515 | 10 | 78 | 0.0 | 1.6 | 0.00 | 0.00 | 0.00 | 61 | 1013.4 |
| 20260508010012 | 10 | 75 | 0.0 | 1.6 | 0.00 | 0.00 | 0.00 | 63 | 1013.2 |
| 20260508005508 | 10 | 78 | 1.6 | 3.2 | 0.00 | 0.00 | 0.00 | 61 | 1013.2 |
| 20260508005005 | 10 | 92 | 0.0 | 1.6 | 0.00 | 0.00 | 0.00 | 61 | 1013.2 |
| 20260508004501 | 10 | 330 | 1.6 | 6.4 | 0.00 | 0.00 | 0.00 | 58 | 1013.2 |
| 20260508003958 | 11 | 6 | 0.0 | 1.6 | 0.00 | 0.00 | 0.00 | 57 | 1013.1 |
| 20260508003455 | 11 | 52 | 0.0 | 3.2 | 0.00 | 0.00 | 0.00 | 57 | 1013.1 |
| 20260508002952 | 11 | 335 | 6.4 | 9.7 | 0.00 | 0.00 | 0.00 | 56 | 1012.9 |
| 20260508002448 | 11 | 312 | 1.6 | 4.8 | 0.00 | 0.00 | 0.00 | 56 | 1012.6 |
| 20260508001944 | 11 | 232 | 0.0 | 1.6 | 0.00 | 0.00 | 0.00 | 56 | 1012.7 |
| 20260508001441 | 12 | 346 | 3.2 | 3.2 | 0.00 | 0.00 | 0.00 | 53 | 1012.7 |
| 20260508000937 | 12 | 318 | 1.6 | 9.7 | 0.00 | 0.00 | 0.00 | 53 | 1012.5 |
| 20260508000434 | 12 | 300 | 3.2 | 3.2 | 0.00 | 0.00 | 0.00 | 53 | 1012.5 |
| 20260507235930 | 12 | 278 | 1.6 | 6.4 | 0.00 | 0.00 | 0.00 | 53 | 1012.4 |
| 20260507235427 | 12 | 293 | 1.6 | 3.2 | 0.00 | 0.00 | 0.00 | 52 | 1012.3 |
| 20260507234925 | 12 | 351 | 3.2 | 9.7 | 0.00 | 0.00 | 0.00 | 49 | 1012.1 |
| 20260507234421 | 12 | 306 | 1.6 | 11.3 | 0.00 | 0.00 | 0.00 | 47 | 1012.2 |
| 20260507233918 | 12 | 318 | 1.6 | 12.9 | 0.00 | 0.00 | 0.00 | 47 | 1012.1 |
| 20260507233415 | 13 | 319 | 3.2 | 4.8 | 0.00 | 0.00 | 0.00 | 46 | 1012.2 |
| 20260507232913 | 13 | 332 | 4.8 | 6.4 | 0.00 | 0.00 | 0.00 | 46 | 1012.1 |
| 20260507232409 | 13 | 351 | 6.4 | 14.5 | 0.00 | 0.00 | 0.00 | 45 | 1012.1 |
| 20260507231907 | 13 | 288 | 6.4 | 9.7 | 0.00 | 0.00 | 0.00 | 45 | 1012.0 |
| 20260507231403 | 13 | 304 | 3.2 | 6.4 | 0.00 | 0.00 | 0.00 | 44 | 1011.7 |
| 20260507230859 | 13 | 351 | 0.0 | 4.8 | 0.00 | 0.00 | 0.00 | 44 | 1011.8 |
| 20260507230357 | 13 | 307 | 4.8 | 6.4 | 0.00 | 0.00 | 0.00 | 45 | 1012.0 |
| 20260507225857 | 13 | 264 | 6.4 | 9.7 | 0.00 | 0.00 | 0.00 | 44 | 1011.8 |
| 20260507225353 | 13 | 318 | 3.2 | 6.4 | 0.00 | 0.00 | 0.00 | 43 | 1011.7 |
| 20260507224849 | 13 | 282 | 4.8 | 6.4 | 0.00 | 0.00 | 0.00 | 43 | 1011.7 |
| 20260507224346 | 13 | 225 | 1.6 | 9.7 | 0.00 | 0.00 | 0.00 | 45 | 1011.6 |
| 20260507223842 | 13 | 306 | 9.7 | 11.3 | 0.00 | 0.00 | 0.00 | 43 | 1011.5 |
| 20260507223339 | 14 | 336 | 3.2 | 6.4 | 0.00 | 0.00 | 0.00 | 43 | 1011.6 |
| 20260507222836 | 14 | 333 | 6.4 | 9.7 | 0.00 | 0.00 | 0.00 | 43 | 1011.5 |
| 20260507222332 | 14 | 330 | 3.2 | 4.8 | 0.00 | 0.00 | 0.00 | 42 | 1011.3 |
| 20260507221829 | 14 | 6 | 1.6 | 12.9 | 0.00 | 0.00 | 0.00 | 42 | 1011.2 |
| 20260507221326 | 15 | 311 | 1.6 | 3.2 | 0.00 | 0.00 | 0.00 | 43 | 1011.2 |
| 20260507220822 | 14 | 319 | 3.2 | 6.4 | 0.00 | 0.00 | 0.00 | 41 | 1011.2 |
| 20260507220320 | 14 | 325 | 1.6 | 6.4 | 0.00 | 0.00 | 0.00 | 43 | 1011.3 |
| 20260507215815 | 15 | 272 | 3.2 | 6.4 | 0.00 | 0.00 | 0.00 | 42 | 1011.1 |
| 20260507215314 | 15 | 354 | 3.2 | 9.7 | 0.00 | 0.00 | 0.00 | 39 | 1011.0 |
| 20260507214810 | 15 | 282 | 4.8 | 11.3 | 0.00 | 0.00 | 0.00 | 39 | 1010.9 |
| 20260507214307 | 16 | 345 | 4.8 | 6.4 | 0.00 | 0.00 | 0.00 | 39 | 1010.9 |
| 20260507213803 | 16 | 353 | 1.6 | 4.8 | 0.00 | 0.00 | 0.00 | 39 | 1010.7 |
| 20260507213300 | 15 | 317 | 3.2 | 12.9 | 0.00 | 0.00 | 0.00 | 41 | 1010.8 |
| 20260507212756 | 15 | 8 | 6.4 | 9.7 | 0.00 | 0.00 | 0.00 | 41 | 1010.7 |
| 20260507212253 | 15 | 67 | 3.2 | 11.3 | 0.00 | 0.00 | 0.00 | 39 | 1010.9 |
| 20260507211749 | 15 | 348 | 8.0 | 16.1 | 0.00 | 0.00 | 0.00 | 40 | 1010.8 |
| 20260507211246 | 15 | 310 | 4.8 | 16.1 | 0.00 | 0.00 | 0.00 | 38 | 1011.0 |
| 20260507210743 | 15 | 287 | 1.6 | 6.4 | 0.00 | 0.00 | 0.00 | 42 | 1010.7 |
| 20260507210240 | 15 | 288 | 3.2 | 16.1 | 0.00 | 0.00 | 0.00 | 42 | 1010.8 |
| 20260507205736 | 15 | 316 | 6.4 | 12.9 | 0.00 | 0.00 | 0.00 | 41 | 1010.7 |
| 20260507205233 | 15 | 288 | 8.0 | 12.9 | 0.00 | 0.00 | 0.00 | 41 | 1010.7 |
| 20260507204729 | 15 | 293 | 3.2 | 6.4 | 0.00 | 0.00 | 0.00 | 40 | 1010.7 |
| 20260507204227 | 16 | 344 | 4.8 | 6.4 | 0.00 | 0.00 | 0.00 | 38 | 1010.7 |
| 20260507203725 | 16 | 330 | 4.8 | 4.8 | 0.00 | 0.00 | 0.00 | 37 | 1010.7 |
| 20260507203221 | 16 | 334 | 4.8 | 14.5 | 0.00 | 0.00 | 0.00 | 38 | 1010.6 |
| 20260507202718 | 16 | 164 | 3.2 | 9.7 | 0.00 | 0.00 | 0.00 | 41 | 1010.7 |
| 20260507202213 | 16 | 322 | 3.2 | 9.7 | 0.00 | 0.00 | 0.00 | 41 | 1010.6 |
| 20260507201708 | 15 | 293 | 1.6 | 6.4 | 0.00 | 0.00 | 0.00 | 40 | 1010.7 |
| 20260507201206 | 15 | 332 | 1.6 | 9.7 | 0.00 | 0.00 | 0.00 | 40 | 1010.9 |
| 20260507200702 | 15 | 319 | 6.4 | 12.9 | 0.00 | 0.00 | 0.00 | 41 | 1011.0 |
| 20260507200158 | 15 | 338 | 1.6 | 3.2 | 0.00 | 0.00 | 0.00 | 42 | 1010.9 |
| 20260507195655 | 15 | 292 | 3.2 | 6.4 | 0.00 | 0.00 | 0.00 | 42 | 1011.2 |
| 20260507195152 | 15 | 343 | 6.4 | 11.3 | 0.00 | 0.00 | 0.00 | 40 | 1011.0 |
| 20260507194649 | 15 | 308 | 4.8 | 4.8 | 0.00 | 0.00 | 0.00 | 41 | 1011.1 |
| 20260507194144 | 15 | 356 | 1.6 | 6.4 | 0.00 | 0.00 | 0.00 | 41 | 1011.0 |
| 20260507193641 | 15 | 330 | 3.2 | 11.3 | 0.00 | 0.00 | 0.00 | 40 | 1011.1 |
| 20260507193138 | 16 | 296 | 4.8 | 11.3 | 0.00 | 0.00 | 0.00 | 41 | 1011.2 |
| 20260507192634 | 16 | 317 | 4.8 | 6.4 | 0.00 | 0.00 | 0.00 | 40 | 1011.0 |
| 20260507192131 | 16 | 342 | 9.7 | 14.5 | 0.00 | 0.00 | 0.00 | 38 | 1011.3 |
| 20260507191627 | 15 | 68 | 0.0 | 9.7 | 0.00 | 0.00 | 0.00 | 42 | 1011.1 |
| 20260507191124 | 16 | 350 | 1.6 | 12.9 | 0.00 | 0.00 | 0.00 | 38 | 1011.1 |
| 20260507190621 | 15 | 22 | 6.4 | 11.3 | 0.00 | 0.00 | 0.00 | 40 | 1011.0 |
| 20260507190120 | 16 | 330 | 3.2 | 9.7 | 0.00 | 0.00 | 0.00 | 40 | 1011.1 |
| 20260507185618 | 16 | 320 | 3.2 | 9.7 | 0.00 | 0.00 | 0.00 | 41 | 1011.0 |
| 20260507185114 | 16 | 325 | 3.2 | 6.4 | 0.00 | 0.00 | 0.00 | 41 | 1011.1 |
| 20260507184612 | 15 | 312 | 1.6 | 3.2 | 0.00 | 0.00 | 0.00 | 46 | 1011.2 |
| 20260507184110 | 16 | 6 | 3.2 | 9.7 | 0.00 | 0.00 | 0.00 | 39 | 1011.3 |
| 20260507183606 | 15 | 346 | 4.8 | 6.4 | 0.00 | 0.00 | 0.00 | 42 | 1011.6 |
| 20260507183103 | 15 | 78 | 6.4 | 9.7 | 0.00 | 0.00 | 0.00 | 41 | 1011.4 |
| 20260507182559 | 14 | 1 | 3.2 | 6.4 | 0.00 | 0.00 | 0.00 | 45 | 1011.3 |
| 20260507182055 | 15 | 314 | 4.8 | 6.4 | 0.00 | 0.00 | 0.00 | 43 | 1011.4 |
| 20260507181553 | 16 | 323 | 1.6 | 4.8 | 0.00 | 0.00 | 0.00 | 43 | 1011.5 |
| 20260507181049 | 14 | 289 | 1.6 | 3.2 | 0.00 | 0.00 | 0.00 | 48 | 1011.6 |
| 20260507180545 | 14 | 320 | 4.8 | 6.4 | 0.00 | 0.00 | 0.00 | 44 | 1011.6 |
| 20260507180042 | 16 | 314 | 4.8 | 9.7 | 0.00 | 0.00 | 0.00 | 43 | 1011.5 |
| 20260507175538 | 15 | 335 | 3.2 | 11.3 | 0.00 | 0.00 | 0.00 | 45 | 1011.4 |
| 20260507175037 | 15 | 1 | 3.2 | 11.3 | 0.00 | 0.00 | 0.00 | 44 | 1011.7 |
| 20260507174533 | 14 | 326 | 3.2 | 6.4 | 0.00 | 0.00 | 0.00 | 45 | 1011.6 |
| 20260507174031 | 15 | 273 | 3.2 | 4.8 | 0.00 | 0.00 | 0.00 | 47 | 1011.8 |
| 20260507173527 | 15 | 304 | 1.6 | 6.4 | 0.00 | 0.00 | 0.00 | 47 | 1011.8 |
| 20260507173025 | 15 | 342 | 6.4 | 9.7 | 0.00 | 0.00 | 0.00 | 47 | 1011.8 |
| 20260507172520 | 15 | 349 | 3.2 | 4.8 | 0.00 | 0.00 | 0.00 | 43 | 1011.7 |
| 20260507172017 | 15 | 76 | 1.6 | 11.3 | 0.00 | 0.00 | 0.00 | 43 | 1012.0 |
| 20260507171513 | 15 | 355 | 3.2 | 6.4 | 0.00 | 0.00 | 0.00 | 46 | 1012.1 |
| 20260507171011 | 15 | 108 | 1.6 | 6.4 | 0.00 | 0.00 | 0.00 | 46 | 1012.1 |
| 20260507170507 | 16 | 312 | 0.0 | 4.8 | 0.00 | 0.00 | 0.00 | 42 | 1011.8 |
| 20260507170004 | 15 | 106 | 8.0 | 16.1 | 0.00 | 0.00 | 0.00 | 44 | 1012.1 |
| 20260507165500 | 14 | 76 | 1.6 | 4.8 | 0.00 | 0.00 | 0.00 | 51 | 1012.1 |
| 20260507164956 | 15 | 81 | 4.8 | 9.7 | 0.00 | 0.00 | 0.00 | 45 | 1012.1 |
| 20260507164453 | 15 | 110 | 3.2 | 6.4 | 0.00 | 0.00 | 0.00 | 49 | 1012.3 |
| 20260507163949 | 13 | 345 | 4.8 | 4.8 | 0.00 | 0.00 | 0.00 | 49 | 1012.4 |
| 20260507163447 | 13 | 58 | 1.6 | 4.8 | 0.00 | 0.00 | 0.00 | 49 | 1012.4 |
| 20260507162944 | 13 | 86 | 0.0 | 0.0 | 0.00 | 0.00 | 0.00 | 50 | 1012.4 |
| 20260507162439 | 13 | 334 | 1.6 | 4.8 | 0.00 | 0.00 | 0.00 | 52 | 1012.3 |
| 20260507161937 | 13 | 326 | 1.6 | 4.8 | 0.00 | 0.00 | 0.00 | 49 | 1012.4 |
| 20260507161432 | 13 | 313 | 6.4 | 6.4 | 0.00 | 0.00 | 0.00 | 49 | 1012.5 |
| 20260507160929 | 14 | 356 | 6.4 | 6.4 | 0.00 | 0.00 | 0.00 | 49 | 1012.5 |
| 20260507160425 | 14 | 2 | 6.4 | 11.3 | 0.00 | 0.00 | 0.00 | 50 | 1012.3 |
| 20260507155921 | 14 | 115 | 9.7 | 14.5 | 0.00 | 0.00 | 0.00 | 46 | 1012.6 |
| 20260507155417 | 14 | 176 | 1.6 | 6.4 | 0.00 | 0.00 | 0.00 | 52 | 1012.7 |
| 20260507154915 | 15 | 117 | 9.7 | 14.5 | 0.00 | 0.00 | 0.00 | 48 | 1012.7 |
| 20260507154411 | 15 | 333 | 3.2 | 9.7 | 0.00 | 0.00 | 0.00 | 50 | 1012.7 |
| 20260507153909 | 14 | 276 | 6.4 | 6.4 | 0.00 | 0.00 | 0.00 | 50 | 1012.7 |
| 20260507153405 | 14 | 96 | 0.0 | 12.9 | 0.00 | 0.00 | 0.00 | 50 | 1012.9 |
| 20260507152901 | 14 | 94 | 4.8 | 6.4 | 0.00 | 0.00 | 0.00 | 48 | 1012.9 |
| 20260507152358 | 13 | 118 | 1.6 | 6.4 | 0.00 | 0.00 | 0.00 | 50 | 1013.0 |
| 20260507151854 | 13 | 155 | 1.6 | 9.7 | 0.00 | 0.00 | 0.00 | 50 | 1012.9 |
| 20260507151351 | 13 | 108 | 3.2 | 4.8 | 0.00 | 0.00 | 0.00 | 50 | 1012.9 |
| 20260507150847 | 12 | 331 | 0.0 | 1.6 | 0.00 | 0.00 | 0.00 | 54 | 1013.1 |
| 20260507150344 | 13 | 314 | 1.6 | 11.3 | 0.00 | 0.00 | 0.00 | 50 | 1013.3 |
| 20260507145840 | 13 | 0 | 3.2 | 4.8 | 0.00 | 0.00 | 0.00 | 50 | 1013.1 |
| 20260507145337 | 13 | 105 | 0.0 | 3.2 | 0.00 | 0.00 | 0.00 | 50 | 1013.2 |
| 20260507144834 | 13 | 318 | 3.2 | 6.4 | 0.00 | 0.00 | 0.00 | 50 | 1013.2 |
| 20260507144332 | 12 | 329 | 3.2 | 9.7 | 0.00 | 0.00 | 0.00 | 54 | 1013.4 |
| 20260507143828 | 12 | 336 | 6.4 | 11.3 | 0.00 | 0.00 | 0.00 | 52 | 1013.4 |
| 20260507143325 | 12 | 345 | 3.2 | 6.4 | 0.00 | 0.00 | 0.00 | 56 | 1013.5 |
| 20260507142821 | 12 | 342 | 1.6 | 6.4 | 0.00 | 0.00 | 0.00 | 57 | 1013.5 |
| 20260507142317 | 12 | 311 | 6.4 | 11.3 | 0.00 | 0.00 | 0.00 | 57 | 1013.6 |
| 20260507141814 | 12 | 76 | 1.6 | 4.8 | 0.00 | 0.00 | 0.00 | 54 | 1013.7 |
| 20260507141311 | 12 | 141 | 8.0 | 14.5 | 0.00 | 0.00 | 0.00 | 57 | 1013.7 |
| 20260507140807 | 12 | 328 | 3.2 | 6.4 | 0.00 | 0.00 | 0.00 | 58 | 1013.8 |
| 20260507140304 | 12 | 101 | 3.2 | 4.8 | 0.00 | 0.00 | 0.00 | 62 | 1013.8 |
| 20260507135802 | 12 | 97 | 4.8 | 6.4 | 0.00 | 0.00 | 0.00 | 62 | 1014.0 |
| 20260507135259 | 13 | 283 | 1.6 | 3.2 | 0.00 | 0.00 | 0.00 | 65 | 1014.0 |
| 20260507134755 | 11 | 98 | 6.4 | 9.7 | 0.00 | 0.00 | 0.00 | 64 | 1014.0 |
| 20260507134252 | 12 | 281 | 3.2 | 9.7 | 0.00 | 0.00 | 0.00 | 63 | 1014.0 |
| 20260507133748 | 12 | 326 | 0.0 | 4.8 | 0.00 | 0.00 | 0.00 | 66 | 1013.9 |
| 20260507133244 | 11 | 88 | 0.0 | 3.2 | 0.00 | 0.00 | 0.00 | 69 | 1014.1 |
| 20260507132742 | 11 | 80 | 1.6 | 6.4 | 0.00 | 0.00 | 0.00 | 67 | 1014.3 |
| 20260507132239 | 11 | 339 | 4.8 | 9.7 | 0.00 | 0.00 | 0.00 | 70 | 1013.9 |
| 20260507131735 | 11 | 79 | 1.6 | 6.4 | 0.00 | 0.00 | 0.00 | 71 | 1014.2 |
| 20260507131233 | 10 | 299 | 6.4 | 11.3 | 0.00 | 0.00 | 0.00 | 69 | 1014.2 |
| 20260507130729 | 10 | 343 | 3.2 | 4.8 | 0.00 | 0.00 | 0.00 | 71 | 1014.2 |
| 20260507130227 | 10 | 29 | 3.2 | 6.4 | 0.00 | 0.00 | 0.00 | 74 | 1014.2 |
| 20260507125725 | 10 | 87 | 0.0 | 1.6 | 0.00 | 0.00 | 0.00 | 82 | 1014.1 |
| 20260507125223 | 8 | 89 | 0.0 | 0.0 | 0.00 | 0.00 | 0.00 | 86 | 1014.2 |
| 20260507124719 | 8 | 321 | 0.0 | 0.0 | 0.00 | 0.00 | 0.00 | 88 | 1014.2 |
| 20260507124216 | 8 | 64 | 0.0 | 0.0 | 0.00 | 0.00 | 0.00 | 88 | 1014.2 |
| 20260507123715 | 8 | 93 | 0.0 | 0.0 | 0.00 | 0.00 | 0.00 | 88 | 1014.3 |
| 20260507123212 | 7 | 77 | 0.0 | 0.0 | 0.00 | 0.00 | 0.00 | 92 | 1014.4 |
| 20260507122707 | 6 | 95 | 0.0 | 0.0 | 0.00 | 0.00 | 0.00 | 92 | 1014.2 |
| 20260507122203 | 6 | 91 | 0.0 | 0.0 | 0.00 | 0.00 | 0.00 | 98 | 1014.1 |
| 20260507121659 | 5 | 82 | 0.0 | 0.0 | 0.00 | 0.00 | 0.00 | 99 | 1014.4 |
| 20260507121155 | 5 | 77 | 0.0 | 0.0 | 0.00 | 0.00 | 0.00 | 99 | 1014.2 |
| 20260507120651 | 3 | 83 | 0.0 | 0.0 | 0.00 | 0.00 | 0.00 | 99 | 1014.3 |
| 20260507120148 | 3 | 89 | 0.0 | 0.0 | 0.00 | 0.00 | 0.00 | 99 | 1014.1 |
| 20260507115644 | 3 | 83 | 0.0 | 0.0 | 0.00 | 0.00 | 0.00 | 99 | 1014.4 |
| 20260507115140 | 3 | 80 | 0.0 | 0.0 | 0.00 | 0.00 | 0.00 | 99 | 1014.5 |
| 20260507114636 | 2 | 91 | 0.0 | 0.0 | 0.00 | 0.00 | 0.00 | 99 | 1014.6 |
| 20260507114133 | 2 | 78 | 0.0 | 0.0 | 0.00 | 0.00 | 0.00 | 99 | 1014.6 |
| 20260507113631 | 2 | 60 | 0.0 | 1.6 | 0.00 | 0.00 | 0.00 | 99 | 1014.4 |
| 20260507113128 | 2 | 69 | 0.0 | 0.0 | 0.00 | 0.00 | 0.00 | 99 | 1014.6 |
| 20260507112625 | 2 | 98 | 0.0 | 1.6 | 0.00 | 0.00 | 0.00 | 99 | 1014.4 |
| 20260507112122 | 2 | 109 | 0.0 | 3.2 | 0.00 | 0.00 | 0.00 | 99 | 1014.4 |
| 20260507111619 | 2 | 91 | 0.0 | 1.6 | 0.00 | 0.00 | 0.00 | 99 | 1014.3 |
| 20260507111116 | 2 | 59 | 0.0 | 0.0 | 0.00 | 0.00 | 0.00 | 99 | 1014.2 |
| 20260507110612 | 2 | 93 | 0.0 | 0.0 | 0.00 | 0.00 | 0.00 | 99 | 1014.2 |
| 20260507110109 | 2 | 103 | 0.0 | 0.0 | 0.00 | 0.00 | 0.00 | 99 | 1014.2 |
| 20260507105606 | 2 | 98 | 0.0 | 0.0 | 0.00 | 0.00 | 0.00 | 99 | 1014.2 |
| 20260507105101 | 2 | 98 | 0.0 | 0.0 | 0.00 | 0.00 | 0.00 | 99 | 1014.2 |
| 20260507104600 | 2 | 110 | 0.0 | 0.0 | 0.00 | 0.00 | 0.00 | 99 | 1014.2 |
| 20260507104055 | 2 | 98 | 0.0 | 0.0 | 0.00 | 0.00 | 0.00 | 99 | 1014.0 |
| 20260507103551 | 2 | 71 | 0.0 | 0.0 | 0.00 | 0.00 | 0.00 | 99 | 1014.0 |
| 20260507103049 | 2 | 61 | 0.0 | 0.0 | 0.00 | 0.00 | 0.00 | 99 | 1014.0 |
| 20260507102545 | 2 | 89 | 0.0 | 0.0 | 0.00 | 0.00 | 0.00 | 99 | 1013.8 |
| 20260507102041 | 2 | 101 | 0.0 | 0.0 | 0.00 | 0.00 | 0.00 | 99 | 1013.9 |
| 20260507101536 | 2 | 199 | 0.0 | 0.0 | 0.00 | 0.00 | 0.00 | 99 | 1013.9 |
| 20260507101033 | 2 | 103 | 0.0 | 0.0 | 0.00 | 0.00 | 0.00 | 99 | 1013.8 |
| 20260507100531 | 2 | 107 | 0.0 | 0.0 | 0.00 | 0.00 | 0.00 | 99 | 1013.9 |
| 20260507100029 | 2 | 153 | 0.0 | 0.0 | 0.00 | 0.00 | 0.00 | 99 | 1013.9 |
| 20260507095526 | 2 | 120 | 0.0 | 0.0 | 0.00 | 0.00 | 0.00 | 99 | 1013.9 |
| 20260507095023 | 2 | 92 | 0.0 | 0.0 | 0.00 | 0.00 | 0.00 | 99 | 1013.9 |
| 20260507094519 | 2 | 101 | 0.0 | 0.0 | 0.00 | 0.00 | 0.00 | 99 | 1014.0 |
| 20260507094016 | 2 | 101 | 0.0 | 0.0 | 0.00 | 0.00 | 0.00 | 99 | 1013.9 |
| 20260507093513 | 2 | 101 | 0.0 | 0.0 | 0.00 | 0.00 | 0.00 | 99 | 1013.9 |
| 20260507093012 | 1 | 101 | 0.0 | 0.0 | 0.00 | 0.00 | 0.00 | 99 | 1013.7 |
| 20260507092508 | 1 | 101 | 0.0 | 0.0 | 0.00 | 0.00 | 0.00 | 99 | 1013.8 |
| 20260507092005 | 1 | 101 | 0.0 | 0.0 | 0.00 | 0.00 | 0.00 | 99 | 1014.1 |
| 20260507091502 | 1 | 101 | 0.0 | 0.0 | 0.00 | 0.00 | 0.00 | 99 | 1014.0 |
| 20260507090957 | 2 | 101 | 0.0 | 0.0 | 0.00 | 0.00 | 0.00 | 99 | 1014.1 |
| 20260507090453 | 2 | 101 | 0.0 | 0.0 | 0.00 | 0.00 | 0.00 | 99 | 1014.0 |
| 20260507085950 | 2 | 101 | 0.0 | 0.0 | 0.00 | 0.00 | 0.00 | 99 | 1014.0 |
| 20260507085447 | 2 | 101 | 0.0 | 0.0 | 0.00 | 0.00 | 0.00 | 99 | 1013.9 |
| 20260507084944 | 2 | 101 | 0.0 | 0.0 | 0.00 | 0.00 | 0.00 | 99 | 1014.0 |
| 20260507084441 | 2 | 101 | 0.0 | 0.0 | 0.00 | 0.00 | 0.00 | 99 | 1014.0 |
| 20260507083938 | 2 | 101 | 0.0 | 0.0 | 0.00 | 0.00 | 0.00 | 99 | 1014.1 |
| 20260507083434 | 2 | 101 | 0.0 | 0.0 | 0.00 | 0.00 | 0.00 | 99 | 1013.8 |
| 20260507082931 | 2 | 101 | 0.0 | 0.0 | 0.00 | 0.00 | 0.00 | 99 | 1013.9 |
| 20260507082427 | 2 | 101 | 0.0 | 0.0 | 0.00 | 0.00 | 0.00 | 99 | 1014.0 |
| 20260507081924 | 2 | 101 | 0.0 | 0.0 | 0.00 | 0.00 | 0.00 | 99 | 1014.1 |
| 20260507081420 | 2 | 101 | 0.0 | 0.0 | 0.00 | 0.00 | 0.00 | 99 | 1013.9 |
| 20260507080917 | 2 | 101 | 0.0 | 0.0 | 0.00 | 0.00 | 0.00 | 99 | 1014.0 |
| 20260507080413 | 2 | 101 | 0.0 | 0.0 | 0.00 | 0.00 | 0.00 | 99 | 1014.1 |
| 20260507075908 | 2 | 101 | 0.0 | 0.0 | 0.00 | 0.00 | 0.00 | 99 | 1014.1 |
| 20260507075405 | 2 | 101 | 0.0 | 0.0 | 0.00 | 0.00 | 0.00 | 99 | 1014.1 |
| 20260507074901 | 3 | 102 | 0.0 | 0.0 | 0.00 | 0.00 | 0.00 | 99 | 1014.0 |
| 20260507074358 | 3 | 102 | 0.0 | 0.0 | 0.00 | 0.00 | 0.00 | 98 | 1014.1 |
| 20260507073856 | 3 | 103 | 0.0 | 0.0 | 0.00 | 0.00 | 0.00 | 98 | 1014.3 |
| 20260507073352 | 3 | 94 | 0.0 | 0.0 | 0.00 | 0.00 | 0.00 | 98 | 1014.1 |
| 20260507072849 | 3 | 105 | 0.0 | 0.0 | 0.00 | 0.00 | 0.00 | 97 | 1014.1 |
| 20260507072347 | 3 | 105 | 0.0 | 0.0 | 0.00 | 0.00 | 0.00 | 97 | 1014.0 |
| 20260507071844 | 3 | 106 | 0.0 | 0.0 | 0.00 | 0.00 | 0.00 | 97 | 1014.1 |
| 20260507071341 | 3 | 108 | 0.0 | 0.0 | 0.00 | 0.00 | 0.00 | 96 | 1014.1 |
| 20260507070837 | 3 | 108 | 0.0 | 0.0 | 0.00 | 0.00 | 0.00 | 96 | 1014.2 |
| 20260507070335 | 4 | 108 | 0.0 | 0.0 | 0.00 | 0.00 | 0.00 | 95 | 1014.3 |
| 20260507065831 | 4 | 113 | 0.0 | 0.0 | 0.00 | 0.00 | 0.00 | 95 | 1014.2 |
| 20260507065328 | 4 | 133 | 0.0 | 0.0 | 0.00 | 0.00 | 0.00 | 94 | 1014.3 |
| 20260507064825 | 4 | 108 | 0.0 | 0.0 | 0.00 | 0.00 | 0.00 | 94 | 1014.2 |
| 20260507064324 | 5 | 129 | 0.0 | 0.0 | 0.00 | 0.00 | 0.00 | 94 | 1014.1 |
| 20260507063821 | 5 | 104 | 0.0 | 0.0 | 0.00 | 0.00 | 0.00 | 94 | 1014.0 |
| 20260507063318 | 5 | 123 | 0.0 | 0.0 | 0.00 | 0.00 | 0.00 | 94 | 1014.0 |
| 20260507062815 | 5 | 97 | 0.0 | 0.0 | 0.00 | 0.00 | 0.00 | 94 | 1014.3 |
| 20260507062312 | 5 | 55 | 0.0 | 0.0 | 0.00 | 0.00 | 0.00 | 93 | 1014.4 |
| 20260507061810 | 5 | 50 | 0.0 | 0.0 | 0.00 | 0.00 | 0.00 | 93 | 1014.3 |
| 20260507061307 | 5 | 89 | 0.0 | 0.0 | 0.00 | 0.00 | 0.00 | 92 | 1014.4 |
| 20260507060806 | 5 | 90 | 0.0 | 0.0 | 0.00 | 0.00 | 0.00 | 91 | 1014.4 |
| 20260507060302 | 5 | 100 | 0.0 | 0.0 | 0.00 | 0.00 | 0.00 | 89 | 1014.6 |
| 20260507055758 | 6 | 103 | 0.0 | 0.0 | 0.00 | 0.00 | 0.00 | 87 | 1014.4 |
| 20260507055253 | 6 | 181 | 0.0 | 0.0 | 0.00 | 0.00 | 0.00 | 87 | 1014.2 |
| 20260507054750 | 6 | 93 | 0.0 | 0.0 | 0.00 | 0.00 | 0.00 | 87 | 1014.4 |
| 20260507054247 | 6 | 93 | 0.0 | 0.0 | 0.00 | 0.00 | 0.00 | 86 | 1014.5 |
| 20260507053744 | 6 | 108 | 0.0 | 0.0 | 0.00 | 0.00 | 0.00 | 85 | 1014.5 |
| 20260507053242 | 6 | 86 | 0.0 | 0.0 | 0.00 | 0.00 | 0.00 | 85 | 1014.5 |
| 20260507052741 | 7 | 105 | 0.0 | 0.0 | 0.00 | 0.00 | 0.00 | 85 | 1014.6 |
| 20260507052236 | 7 | 105 | 0.0 | 0.0 | 0.00 | 0.00 | 0.00 | 84 | 1014.8 |
| 20260507051735 | 7 | 105 | 0.0 | 0.0 | 0.00 | 0.00 | 0.00 | 85 | 1014.7 |
| 20260507051231 | 7 | 105 | 0.0 | 0.0 | 0.00 | 0.00 | 0.00 | 84 | 1014.9 |
| 20260507050728 | 7 | 97 | 0.0 | 0.0 | 0.00 | 0.00 | 0.00 | 84 | 1014.7 |
| 20260507050225 | 7 | 101 | 0.0 | 0.0 | 0.00 | 0.00 | 0.00 | 84 | 1015.0 |
| 20260507045722 | 7 | 92 | 0.0 | 0.0 | 0.00 | 0.00 | 0.00 | 84 | 1014.9 |
| 20260507045218 | 7 | 98 | 0.0 | 0.0 | 0.00 | 0.00 | 0.00 | 83 | 1014.9 |
| 20260507044715 | 7 | 126 | 0.0 | 0.0 | 0.00 | 0.00 | 0.00 | 83 | 1015.0 |
| 20260507044212 | 7 | 300 | 0.0 | 0.0 | 0.00 | 0.00 | 0.00 | 85 | 1015.0 |
| 20260507043708 | 7 | 96 | 0.0 | 0.0 | 0.00 | 0.00 | 0.00 | 88 | 1015.0 |
| 20260507043205 | 7 | 96 | 0.0 | 0.0 | 0.00 | 0.00 | 0.00 | 89 | 1015.2 |
| 20260507042701 | 7 | 94 | 0.0 | 0.0 | 0.00 | 0.00 | 0.00 | 89 | 1014.9 |
| 20260507042156 | 7 | 44 | 0.0 | 0.0 | 0.00 | 0.00 | 0.00 | 89 | 1014.9 |
| 20260507041654 | 7 | 38 | 0.0 | 0.0 | 0.00 | 0.00 | 0.00 | 88 | 1014.9 |
| 20260507041150 | 7 | 31 | 0.0 | 0.0 | 0.00 | 0.00 | 0.00 | 89 | 1014.9 |
| 20260507040647 | 7 | 358 | 0.0 | 0.0 | 0.00 | 0.00 | 0.00 | 88 | 1015.1 |
| 20260507040143 | 7 | 59 | 0.0 | 0.0 | 0.00 | 1.22 | 1.22 | 88 | 1015.0 |
| 20260507035639 | 7 | 66 | 0.0 | 0.0 | 0.00 | 1.22 | 1.22 | 87 | 1015.0 |
| 20260507035135 | 7 | 69 | 0.0 | 0.0 | 0.00 | 1.22 | 1.22 | 86 | 1014.9 |
| 20260507034633 | 7 | 89 | 0.0 | 0.0 | 0.00 | 1.22 | 1.22 | 83 | 1014.8 |
| 20260507034130 | 7 | 89 | 0.0 | 0.0 | 0.00 | 1.22 | 1.22 | 86 | 1014.8 |
| 20260507033629 | 7 | 89 | 0.0 | 0.0 | 0.00 | 1.22 | 1.22 | 86 | 1014.6 |
| 20260507033125 | 7 | 89 | 0.0 | 0.0 | 0.00 | 1.22 | 1.22 | 88 | 1014.6 |
| 20260507032623 | 7 | 89 | 0.0 | 0.0 | 0.00 | 1.22 | 1.22 | 85 | 1014.6 |
| 20260507032118 | 7 | 89 | 0.0 | 0.0 | 0.00 | 1.22 | 1.22 | 83 | 1014.6 |
| 20260507031615 | 7 | 40 | 0.0 | 0.0 | 0.00 | 1.22 | 1.22 | 83 | 1014.8 |
| 20260507031112 | 7 | 10 | 0.0 | 0.0 | 0.00 | 1.22 | 1.22 | 82 | 1014.6 |
| 20260507030609 | 8 | 0 | 0.0 | 0.0 | 0.00 | 1.22 | 1.22 | 81 | 1014.7 |
| 20260507030107 | 7 | 46 | 0.0 | 0.0 | 0.00 | 1.22 | 1.22 | 79 | 1014.6 |
| 20260507025603 | 7 | 45 | 0.0 | 0.0 | 0.00 | 1.22 | 1.22 | 81 | 1014.5 |
| 20260507025100 | 7 | 24 | 0.0 | 0.0 | 0.00 | 1.22 | 1.22 | 84 | 1014.5 |
| 20260507024559 | 7 | 327 | 0.0 | 0.0 | 0.00 | 1.22 | 1.22 | 83 | 1014.4 |
| 20260507024055 | 7 | 69 | 0.0 | 0.0 | 0.00 | 1.22 | 1.22 | 84 | 1014.3 |